Wind_Speed
15 15 15 15 15 15 15 15 15 14 15 15 14 14 14 14 14 13 13 12 12 11 10 10 9 9 9 9 8 8 8 8 7 8 7 7 6 7 6 6 7 7 8 8
16 16 16 16 16 16 16 16 16 15 16 16 16 15 14 15 14 13 13 13 12 12 11 10 10 10 9 9 9 9 8 8 8 8 8 7 7 7 7 7 7 7 7 8
17 16 16 17 17 17 17 17 17 16 16 16 16 14 14 15 15 14 13 13 13 12 12 11 11 11 10 10 10 9 9 9 9 9 9 8 7 7 7 7 7 7 8 8
16 17 17 17 17 17 17 17 17 16 16 16 16 14 13 14 14 13 13 13 12 12 12 12 11 11 11 11 10 10 11 10 10 10 9 9 9 8 8 8 8 8 8 9
16 16 17 17 17 17 17 16 16 16 16 16 15 15 13 13 12 12 12 12 12 12 13 13 12 11 11 12 11 11 12 12 11 11 10 10 10 10 10 9 9 9 9 9
16 17 17 16 17 17 16 16 16 16 16 16 15 15 13 12 12 12 12 12 13 13 13 13 13 12 12 13 12 13 13 13 13 12 11 11 11 11 11 10 10 10 10 10
16 17 17 17 17 17 16 16 17 17 16 16 15 16 14 13 13 12 13 13 13 13 13 13 13 13 13 13 13 13 13 14 14 14 13 12 12 12 12 12 12 12 11 12
17 17 17 17 17 17 17 17 17 18 17 16 16 16 16 15 14 13 14 14 15 15 14 14 14 14 14 14 14 14 15 15 15 14 14 14 13 13 13 13 12 12 12 12
17 17 17 17 17 18 17 18 18 18 18 18 17 16 16 15 14 14 15 16 15 15 15 15 15 15 15 15 15 16 16 16 15 15 15 14 14 14 14 13 13 13 13 13
18 18 17 17 18 18 18 18 18 19 19 19 18 17 16 16 16 16 16 17 16 15 15 15 15 15 16 17 17 17 17 16 16 16 16 15 14 15 15 15 15 14 14 13
19 19 18 18 18 18 19 19 19 20 20 20 19 17 17 17 17 17 17 16 16 16 16 16 17 17 18 18 18 17 17 17 17 17 17 16 16 15 16 16 16 15 14 14
20 21 20 19 19 19 20 20 20 20 21 21 21 18 18 19 19 18 18 18 17 17 17 18 18 18 19 19 19 19 18 18 18 18 18 17 16 17 16 17 17 16 15 15
22 22 22 21 21 20 21 21 21 22 22 22 22 20 18 19 20 19 20 19 19 18 18 19 19 20 20 20 21 20 20 20 19 19 18 18 17 17 17 17 17 17 17 17
23 23 23 23 23 22 22 22 22 22 23 23 23 21 20 21 21 21 21 21 21 20 21 21 21 21 22 22 22 22 22 21 21 21 20 19 19 19 19 19 18 18 18 18
23 22 22 23 24 23 23 22 22 23 24 25 23 23 22 23 23 23 22 22 23 23 23 22 23 23 23 23 23 23 23 22 22 22 22 21 20 20 20 20 20 20 19 19
23 22 22 23 23 24 24 23 23 24 24 25 25 24 24 24 23 23 23 23 24 24 24 23 24 24 23 23 22 22 23 23 22 22 22 22 22 22 22 22 22 22 21 21
23 22 22 23 23 25 24 22 23 24 25 25 26 25 24 24 24 23 24 24 24 24 24 24 24 24 24 24 23 23 23 23 23 23 23 23 23 23 23 23 23 23 23 23
22 22 23 23 23 25 23 22 23 23 24 25 25 24 24 24 24 24 25 25 24 25 25 25 25 25 24 24 24 23 23 23 23 23 23 23 23 24 24 25 25 24 24 24
22 23 24 24 23 23 22 22 22 23 23 24 25 24 24 25 25 25 25 25 25 25 25 26 26 26 25 25 24 24 24 24 23 24 24 24 25 25 25 25 25 26 25 25
22 22 23 23 23 23 20 21 22 23 23 23 24 25 25 26 25 24 24 25 26 26 26 26 26 26 26 26 25 25 25 25 25 24 24 25 25 26 26 26 26 26 26 26
22 22 22 22 23 23 22 22 22 22 22 22 23 25 25 26 25 24 25 25 26 26 26 26 26 26 26 26 26 26 26 25 25 25 25 25 26 27 27 27 27 27 27 28
22 22 22 23 23 22 22 23 23 23 23 23 24 25 25 25 25 26 26 26 26 26 26 26 27 26 26 26 26 26 26 27 27 27 27 27 28 28 28 28 28 28 29 29
22 23 23 24 23 23 23 23 24 24 24 24 25 26 26 26 26 27 27 27 27 27 27 27 27 27 27 27 27 27 27 27 28 28 29 29 30 30 30 30 30 30 30 30
22 23 24 23 23 24 24 24 25 26 26 26 27 27 27 27 27 28 27 27 27 27 27 27 28 27 27 28 28 28 28 29 30 30 30 31 31 31 31 32 32 32 32 32
23 23 23 23 23 24 23 24 25 26 26 26 27 27 27 27 27 27 27 27 27 27 27 27 28 28 27 28 29 29 30 30 31 31 31 31 32 32 32 33 33 33 34 34
22 23 23 23 23 24 23 24 25 26 26 26 26 25 26 27 27 27 27 26 27 27 27 28 28 28 28 28 29 30 30 31 31 32 32 32 32 33 33 33 33 33 34 34
Wind_Direction
267 266 267 268 269 271 272 272 272 274 275 275 277 277 277 278 280 281 282 285 288 292 294 297 299 300 301 304 307 309 308 309 307 305 304 300 296 292 287 287 288 286 271 258
265 265 266 267 269 271 272 273 272 272 273 273 273 274 275 275 274 276 277 280 284 290 292 293 295 296 296 296 299 303 304 306 305 302 301 296 295 294 292 287 284 283 273 260
265 266 267 268 270 271 271 273 273 273 272 272 273 271 271 272 271 271 273 277 284 288 289 288 289 290 290 292 293 297 300 301 300 299 299 296 291 289 286 281 280 278 270 262
266 266 267 269 271 272 271 272 273 273 271 271 273 272 270 270 272 272 273 277 281 285 286 286 285 285 287 288 289 294 295 296 296 297 296 291 288 284 281 279 275 268 264 263
267 267 268 268 269 270 270 270 271 272 271 270 271 272 271 271 270 272 274 277 280 283 283 283 282 281 282 285 289 290 291 292 293 294 293 290 285 282 280 275 272 268 267 267
267 267 268 270 270 270 270 270 270 270 270 269 271 273 272 271 276 273 273 276 279 282 282 282 281 281 282 283 285 287 290 291 291 291 290 287 283 282 281 276 271 270 269 266
267 267 268 269 268 267 268 269 270 271 269 269 269 271 273 274 273 273 273 275 276 278 279 279 279 281 282 282 284 285 287 289 290 289 287 284 280 279 278 275 271 268 267 266
267 269 269 269 267 266 266 267 269 271 272 271 267 269 273 275 273 273 274 275 275 277 278 277 278 280 281 282 282 284 286 288 289 287 284 282 278 276 274 270 267 267 267 268
270 270 269 267 266 265 264 265 266 269 271 271 269 269 269 272 274 276 275 276 276 276 277 277 279 280 281 282 283 284 286 287 288 286 283 282 277 274 271 268 266 264 265 266
270 270 268 267 267 265 266 265 264 265 268 270 271 270 270 270 273 273 272 274 276 276 277 279 279 280 281 282 283 285 286 287 286 284 282 280 277 273 272 270 268 264 263 263
269 268 266 265 266 266 266 266 266 266 267 270 272 273 273 273 273 272 272 274 276 279 280 279 280 281 282 283 282 284 285 285 284 283 282 280 276 274 271 270 269 264 263 262
269 269 268 267 265 264 265 266 266 267 267 268 269 272 273 273 272 272 272 274 276 280 282 282 281 281 282 283 284 284 283 283 283 281 280 278 274 271 270 269 269 264 262 262
270 269 268 266 264 264 264 264 266 267 266 267 269 273 274 273 272 272 273 273 274 278 281 282 281 282 282 283 284 282 280 279 279 278 278 275 272 268 267 267 267 265 264 263
269 268 268 267 265 265 264 265 267 268 267 269 271 273 272 272 272 272 273 274 274 278 280 281 281 282 283 283 282 281 280 278 277 276 275 273 271 269 267 266 267 267 266 264
271 270 269 266 265 265 265 265 266 267 268 269 270 272 273 271 272 273 274 275 277 279 281 280 281 282 282 282 281 280 278 276 275 274 272 271 270 270 269 268 268 267 266 264
272 271 269 267 266 266 265 265 266 267 269 271 271 272 273 272 272 273 274 276 278 279 280 281 282 282 282 282 281 279 277 275 275 274 272 270 269 269 270 269 268 268 266 266
273 272 270 268 268 267 266 268 268 268 269 271 271 270 269 269 271 272 274 275 278 279 280 281 283 281 281 282 281 279 277 276 275 273 272 271 269 269 269 268 267 266 266 266
273 272 273 273 273 270 269 269 270 270 268 270 270 269 268 268 269 270 272 275 278 280 280 281 283 282 281 282 280 280 277 276 275 274 272 271 270 269 268 268 267 266 265 265
272 272 273 274 275 274 270 271 271 270 269 269 270 269 268 269 270 270 272 275 279 280 281 280 280 281 281 280 279 278 277 277 276 275 274 274 273 271 269 267 266 266 265 264
271 272 273 275 277 276 273 271 271 272 272 271 271 270 271 271 272 273 274 276 279 280 280 280 280 281 281 281 278 277 277 276 275 275 275 276 275 273 271 269 268 267 266 264
271 272 274 276 277 277 274 271 271 272 274 274 273 273 273 273 276 277 275 276 278 279 279 279 280 281 281 281 279 277 276 276 276 276 276 276 275 273 271 269 268 267 266 266
271 271 273 275 277 277 275 273 274 275 275 275 275 276 276 276 277 277 276 276 277 278 278 279 279 280 280 280 280 278 277 276 276 276 275 275 275 273 272 271 270 268 266 266
273 272 274 273 275 275 273 273 275 275 276 277 277 277 277 277 277 277 277 278 278 278 278 278 279 280 281 281 280 279 278 277 276 277 276 276 275 273 272 272 271 270 268 267
275 275 274 273 273 272 272 272 274 275 276 278 278 279 278 278 279 278 278 278 279 279 279 279 279 280 281 281 280 281 280 278 278 278 278 278 277 275 274 273 272 271 269 268
275 275 274 273 272 271 272 274 275 276 277 278 279 279 280 279 279 279 279 279 281 282 281 280 280 281 281 281 281 281 282 281 279 278 278 279 279 277 276 275 273 272 270 268
275 276 274 272 271 271 271 273 275 277 278 278 279 280 280 281 281 281 282 282 282 282 282 281 282 283 283 283 283 283 282 283 282 280 279 279 279 278 277 276 274 271 269 267
Height
5860 5861 5860 5860 5860 5860 5860 5861 5861 5861 5860 5860 5860 5861 5860 5860 5859 5859 5858 5857 5857 5856 5855 5854 5853 5852 5851 5850 5849 5847 5847 5846 5845 5844 5843 5842 5841 5841 5840 5840 5840 5839 5839 5839
5857 5857 5857 5856 5856 5856 5857 5857 5857 5858 5857 5856 5857 5857 5857 5856 5856 5856 5855 5855 5854 5853 5852 5851 5850 5849 5848 5848 5847 5846 5845 5844 5843 5842 5841 5840 5839 5839 5838 5838 5838 5837 5837 5837
5852 5854 5853 5853 5853 5853 5853 5853 5853 5854 5853 5853 5853 5854 5854 5853 5852 5852 5852 5852 5851 5851 5850 5849 5848 5847 5846 5846 5845 5844 5843 5842 5841 5840 5839 5838 5838 5837 5837 5836 5836 5836 5835 5836
5849 5849 5849 5849 5849 5849 5849 5849 5849 5849 5849 5849 5850 5850 5850 5849 5849 5849 5849 5849 5848 5848 5847 5846 5845 5845 5844 5843 5842 5841 5840 5840 5839 5838 5837 5836 5836 5835 5835 5834 5834 5834 5834 5834
5845 5845 5845 5845 5845 5845 5845 5845 5846 5846 5845 5846 5846 5846 5848 5846 5846 5846 5846 5846 5845 5845 5844 5843 5842 5842 5841 5840 5840 5839 5838 5837 5836 5836 5835 5834 5833 5833 5833 5832 5832 5832 5832 5832
5842 5841 5841 5841 5841 5841 5842 5842 5842 5842 5842 5842 5843 5843 5844 5843 5843 5843 5843 5843 5842 5841 5841 5840 5839 5839 5838 5837 5837 5836 5835 5834 5833 5833 5832 5831 5831 5830 5830 5829 5829 5829 5829 5829
5838 5838 5838 5838 5837 5838 5838 5838 5838 5838 5838 5839 5840 5839 5840 5840 5840 5840 5840 5839 5839 5838 5838 5837 5836 5835 5835 5834 5833 5832 5832 5831 5830 5829 5828 5828 5827 5827 5827 5827 5826 5826 5826 5826
5834 5835 5834 5834 5834 5834 5834 5834 5835 5835 5834 5835 5835 5835 5837 5837 5836 5836 5836 5836 5835 5835 5834 5833 5833 5832 5831 5830 5829 5829 5828 5827 5826 5825 5825 5824 5824 5823 5823 5823 5823 5823 5823 5823
5830 5830 5830 5830 5829 5830 5830 5829 5830 5830 5830 5830 5831 5832 5833 5833 5833 5833 5832 5832 5831 5831 5830 5829 5829 5828 5827 5826 5825 5825 5823 5822 5822 5821 5820 5820 5819 5819 5819 5819 5819 5819 5819 5819
5825 5826 5826 5825 5825 5825 5826 5826 5826 5826 5825 5826 5827 5828 5829 5829 5829 5828 5828 5828 5827 5827 5826 5825 5825 5824 5823 5822 5821 5820 5819 5818 5817 5817 5816 5815 5815 5815 5815 5815 5815 5815 5815 5816
5820 5821 5822 5821 5821 5821 5821 5822 5821 5821 5821 5822 5822 5826 5825 5824 5824 5824 5824 5824 5823 5823 5822 5821 5821 5820 5819 5818 5817 5815 5814 5814 5813 5812 5811 5811 5810 5810 5810 5810 5810 5810 5811 5811
5814 5815 5815 5816 5816 5816 5816 5816 5816 5817 5817 5817 5817 5821 5819 5819 5819 5819 5819 5819 5819 5818 5818 5817 5816 5815 5814 5813 5812 5811 5810 5809 5808 5807 5807 5806 5805 5805 5805 5805 5805 5806 5806 5807
5809 5809 5809 5810 5812 5812 5811 5811 5811 5811 5811 5811 5812 5816 5814 5813 5813 5813 5814 5814 5813 5813 5812 5811 5810 5809 5808 5807 5806 5805 5804 5803 5803 5802 5802 5801 5800 5800 5800 5800 5800 5801 5801 5802
5803 5803 5804 5805 5804 5804 5805 5805 5805 5805 5805 5806 5807 5808 5809 5808 5808 5808 5808 5808 5807 5807 5806 5806 5805 5804 5803 5802 5800 5800 5799 5798 5797 5796 5796 5795 5795 5795 5795 5795 5795 5796 5796 5796
5797 5797 5797 5797 5797 5797 5798 5799 5799 5799 5799 5800 5801 5802 5803 5802 5802 5802 5802 5802 5802 5801 5800 5800 5799 5798 5797 5795 5794 5793 5793 5792 5791 5790 5789 5789 5789 5789 5789 5789 5789 5790 5790 5791
5791 5791 5791 5791 5791 5790 5791 5792 5793 5793 5793 5793 5794 5795 5796 5796 5795 5795 5795 5795 5795 5795 5794 5793 5792 5791 5790 5789 5788 5787 5786 5785 5784 5784 5783 5783 5782 5782 5783 5783 5783 5783 5784 5784
5785 5785 5785 5785 5785 5784 5785 5787 5786 5786 5786 5787 5787 5790 5789 5789 5789 5789 5789 5789 5788 5788 5787 5786 5785 5784 5783 5782 5781 5780 5779 5778 5777 5777 5776 5776 5775 5776 5776 5775 5776 5776 5777 5777
5779 5779 5778 5778 5779 5778 5782 5780 5780 5779 5779 5780 5780 5781 5782 5783 5783 5782 5782 5782 5781 5781 5780 5779 5778 5776 5775 5774 5773 5772 5771 5771 5770 5769 5769 5768 5768 5768 5768 5768 5768 5769 5769 5769
5773 5773 5772 5771 5771 5771 5773 5773 5772 5772 5773 5773 5773 5774 5775 5775 5775 5775 5775 5775 5774 5773 5772 5771 5770 5769 5768 5766 5766 5765 5764 5763 5763 5762 5761 5760 5760 5760 5760 5760 5761 5761 5761 5762
5767 5766 5766 5765 5764 5765 5767 5766 5765 5766 5766 5767 5767 5767 5768 5768 5768 5769 5768 5767 5766 5765 5765 5763 5762 5761 5760 5758 5757 5757 5756 5756 5755 5754 5753 5753 5752 5752 5752 5752 5753 5753 5753 5754
5761 5760 5759 5758 5757 5758 5760 5759 5759 5760 5761 5760 5760 5760 5760 5761 5761 5761 5760 5759 5758 5757 5756 5755 5754 5753 5752 5750 5749 5749 5748 5747 5747 5746 5746 5745 5744 5744 5743 5744 5744 5744 5744 5745
5754 5754 5753 5752 5751 5754 5752 5751 5752 5752 5752 5752 5753 5753 5753 5754 5753 5753 5752 5751 5750 5749 5748 5747 5746 5745 5744 5742 5741 5740 5740 5739 5738 5738 5737 5736 5736 5735 5734 5734 5735 5735 5735 5735
5748 5748 5747 5747 5748 5746 5745 5745 5744 5744 5745 5745 5745 5746 5746 5746 5746 5745 5744 5743 5742 5741 5740 5738 5737 5736 5735 5734 5733 5732 5731 5730 5730 5729 5728 5727 5726 5726 5725 5725 5725 5725 5725 5725
5741 5740 5740 5739 5739 5739 5738 5738 5738 5738 5738 5738 5738 5738 5738 5738 5737 5736 5736 5735 5733 5732 5731 5730 5729 5728 5727 5726 5724 5723 5722 5721 5720 5719 5718 5717 5716 5715 5715 5714 5714 5714 5714 5714
5734 5733 5732 5732 5732 5731 5731 5731 5731 5731 5731 5730 5730 5730 5729 5729 5729 5728 5727 5726 5724 5723 5722 5721 5720 5719 5718 5717 5716 5714 5712 5711 5710 5709 5708 5707 5706 5705 5704 5703 5702 5702 5702 5702
5728 5727 5726 5725 5725 5724 5725 5724 5724 5723 5723 5723 5723 5723 5722 5721 5720 5719 5718 5717 5716 5714 5713 5712 5711 5710 5709 5708 5707 5705 5703 5701 5700 5699 5698 5696 5695 5694 5693 5692 5691 5690 5690 5690